カタログに戻る

TAIZHOU

運用中通信SSO
NORAD 63986·PAYLOAD·🇨🇳 China
この衛星名は、まだ公式ソースで確認されていません。

打ち上げ May 14, 2025 から Jiuquan Satellite Launch Center

Loading…

次のパス (今後24時間)

TLE

最新Source: Space-Track

元期: Sep 14, 2026, 20:52 UTC

1 63986U 25100E   26257.86996346  .00012163  00000-0  54340-3 0  9995
2 63986  97.3551 328.5469 0010041  17.4603 342.6977 15.21439171 44086

AllMySatでTAIZHOUをリアルタイム追跡

Download on the App Store